Regional Weather Roundup
Issued by NWS Little Rock, AR

Home | Current Version | Previous Version | Graphics & Text | Print | Product List | Glossary On
Versions: 1 2 3 4 5 6 7 8 9 10 11 12 13 14 15 16 17 18 19 20 21 22 23 24 25 26 27 28 29 30 31 32 33 34 35 36 37 38 39 40 41 42 43 44 45 46 47 48 49 50
626
ASUS44 KLZK 261605
RWRLZK

WEATHER ROUNDUP FOR ARKANSAS
NATIONAL WEATHER SERVICE LITTLE ROCK AR
1100 AM CDT MON JUN 26 2017

NOTE: "FAIR" INDICATES FEW OR NO CLOUDS BELOW 12,000 FEET WITH NO
SIGNIFICANT WEATHER AND/OR OBSTRUCTIONS TO VISIBILITY.

ARZ001-003-010-029-261700-
NORTHWEST ARKANSAS

CITY           SKY/WX    TMP DP  RH WIND       PRES   REMARKS
FAYETTEVILLE   SUNNY     76  61  59 VRB3      30.22F
FORT SMITH     MOSUNNY   80  63  55 NE3       30.19F
HARRISON       CLOUDY    73  54  51 SE14      30.24F
BENTONVILLE    SUNNY     75  59  57 CALM      30.23F
ROGERS         MOSUNNY   76  61  59 SE7       30.23F
SILOAM SPGS    MOSUNNY   79  61  53 S8        30.21F
HIGHFILL       SUNNY     79  61  53 S10       30.22F
SPRINGDALE     MOSUNNY   75  61  60 SE5       30.24F
$$

ARZ004-005-016-261700-
NORTH CENTRAL ARKANSAS

CITY           SKY/WX    TMP DP  RH WIND       PRES   REMARKS
BATESVILLE     MOSUNNY   79  57  47 E7        30.23F
FLIPPIN        CLOUDY    73  55  53 S6        30.20F
MTN HOME       PTSUNNY   74  61  63 SW6       30.22F
$$

ARZ040-041-261700-
WEST CENTRAL ARKANSAS

CITY           SKY/WX    TMP DP  RH WIND       PRES   REMARKS
MENA           PTSUNNY   81  63  54 CALM      30.22F
MOUNT IDA      SUNNY     80  57  45 SE5       30.19S
$$

ARZ009-017-025-026-028-261700-
NORTHEAST ARKANSAS

CITY           SKY/WX    TMP DP  RH WIND       PRES   REMARKS
JONESBORO      CLOUDY    77  61  57 E8        30.22S
WALNUT RIDGE   SUNNY     73  57  56 E8        30.22F
BLYTHEVILLE    CLOUDY    74  57  55 E5        30.22F
$$

ARZ022-023-033-042-044-261700-
CENTRAL ARKANSAS

CITY           SKY/WX    TMP DP  RH WIND       PRES   REMARKS
LITTLE ROCK    PTSUNNY   80  60  50 NE6       30.21S
N LITTLE ROCK    N/A     79  65  64 NE5       30.20S
JACKSONVILLE   CLOUDY    79  64  60 NE6       30.21S
CONWAY           N/A     81  61  50 VRB6      30.19F
SEARCY         MOSUNNY   78  62  57 NE9       30.23F
HOT SPRINGS    SUNNY     82  61  48 VRB7      30.21S
RUSSELLVILLE   CLOUDY    81  59  47 VRB3      30.20F
CLINTON        PTSUNNY   75  57  53 CALM      30.23F
$$

ARZ036-261700-
EAST ARKANSAS

CITY           SKY/WX    TMP DP  RH WIND       PRES   REMARKS
WEST MEMPHIS   CLOUDY    76  66  71 N7        30.20S
$$

ARZ050-053-066-070-073-261700-
SOUTHWEST ARKANSAS

CITY           SKY/WX    TMP DP  RH WIND       PRES   REMARKS
CAMDEN         MOSUNNY   82  61  47 CALM      30.19F
TEXARKANA      CLOUDY    79  63  57 VRB6      30.19F
EL DORADO      SUNNY     81  63  54 E7        30.20S
DE QUEEN       CLOUDY    77  66  68 E5        30.18F
$$

ARZ056-057-069-261700-
SOUTHEAST ARKANSAS

CITY           SKY/WX    TMP DP  RH WIND       PRES   REMARKS
PINE BLUFF     PTSUNNY   78  63  59 VRB3      30.21R
STUTTGART      SUNNY     79  55  44 NE6       30.21S
MONTICELLO     MOSUNNY   81  59  47 SE7       30.18F

$$






USA.gov is the U.S. government's official web portal to all federal, state and local government web resources and services.